Home > Weather > Basse-Terre > Past weeks

Flag for Guadeloupe Weather for the Past 2 Weeks in Basse-Terre, Guadeloupe

Now
84 °F

Scattered clouds.


Feels Like: 87 °F
Forecast: 72 / 80 °F
Wind: 14 mph from Southeast

Location: Le Raizet - Guadeloupe

Current Time: Feb 11, 2016 at 3:32:58 PM

Latest Report: Feb 11, 2016 at 3:00 PM


Visibility: N/A

Pressure: 30.01 "Hg

Humidity: 58%

Dew point: 68 °F

Location of Basse-TerreLocation

Historic Weather in Basse-Terre — Graph

°F

Basse-Terre Temperature Yesterday

Maximum temperature yesterday: 86 °F (at 1:00 PM)
Minimum temperature yesterday: 73 °F (at 12:30 AM)
Average temperature yesterday: 78 °F

High & Low Weather Summary for the Past Weeks

 TemperatureHumidityPressure
High86 °F (Feb 3, 11:00 AM)100% (Feb 2, 5:00 AM)30.12 "Hg (Feb 2, 5:00 AM)
Low66 °F (Feb 5, 3:00 AM)46% (Feb 10, 2:00 PM)29.86 "Hg (Feb 4, 2:30 AM)
Average77 °F76%30.02 "Hg
* Reported Jan 27 2:00 PM — Feb 11 2:30 PM, Basse-Terre, Weather by CustomWeather, © 2016

Note: Actual official high and low records may vary slightly from our data, if they occured in-between our weather recording intervals... More about our weather records

Advertising

Basse-Terre Weather History for the Previous 24 Hours

 ConditionsComfort  
Time TempWeatherWind HumidityBarometerVisibility
2:30 PM
Thu, Feb 11
84 °FBroken clouds.14 mph62%30.01 "HgN/A
2:00 PM82 °FScattered clouds.14 mph66%30.01 "HgN/A
1:30 PM84 °FPassing clouds.14 mph58%30.04 "HgN/A
1:00 PM86 °FClear.13 mph59%30.04 "HgN/A
12:30 PM84 °FPassing clouds.14 mph62%30.07 "HgN/A
12:00 PM84 °FPartly sunny.14 mph62%30.07 "HgN/A
11:30 AM82 °FPartly sunny.14 mph62%30.09 "HgN/A
11:00 AM81 °FBroken clouds.14 mph70%30.09 "HgN/A
10:30 AM82 °FPartly sunny.15 mph66%30.09 "HgN/A
10:00 AM81 °FWarm.13 mph74%30.12 "HgN/A
9:30 AM79 °FWarm.8 mph79%30.12 "HgN/A
9:00 AM79 °FPartly sunny.10 mph79%30.09 "HgN/A
8:30 AM77 °FBroken clouds.No wind89%30.09 "HgN/A
8:00 AM75 °FBroken clouds.2 mph89%30.09 "HgN/A
7:30 AM73 °FLight rain. Fog.5 mph94%30.09 "Hg3 mi
7:00 AM73 °FLight rain. Mostly cloudy.8 mph89%30.07 "HgN/A
6:30 AM73 °FLight rain. Partly cloudy.10 mph89%30.07 "HgN/A
6:00 AM73 °FPassing clouds.3 mph89%30.07 "HgN/A
5:30 AM72 °FPassing clouds.No wind88%30.04 "HgN/A
5:00 AM73 °FPartly cloudy.No wind83%30.04 "HgN/A
4:30 AM75 °FPartly cloudy.No wind78%30.04 "HgN/A
4:00 AM73 °FClear.2 mph83%30.04 "HgN/A
3:30 AM73 °FClear.1 mph83%30.04 "HgN/A
3:00 AM75 °FPassing clouds.2 mph78%30.04 "HgN/A
2:30 AM75 °FPassing clouds.5 mph78%30.04 "HgN/A
2:00 AM75 °FOvercast.6 mph78%30.04 "HgN/A
1:30 AM75 °FPassing clouds.5 mph78%30.07 "HgN/A
1:00 AM75 °FPassing clouds.1 mph78%30.07 "HgN/A
12:30 AM73 °FPartly cloudy.No wind83%30.07 "HgN/A
12:00 AM73 °FPassing clouds.3 mph83%30.07 "HgN/A
11:30 PM
Wed, Feb 10
75 °FPartly cloudy.5 mph78%30.09 "HgN/A
11:00 PM75 °FPassing clouds.2 mph74%30.09 "HgN/A
10:00 PM75 °FPassing clouds.3 mph74%30.09 "HgN/A
9:30 PM75 °FClear.6 mph74%30.09 "HgN/A
9:00 PM75 °FClear.7 mph74%30.09 "HgN/A
8:00 PM75 °FClear.5 mph78%30.07 "HgN/A
7:30 PM75 °FPassing clouds.3 mph78%30.07 "HgN/A
7:00 PM77 °FClear.7 mph74%30.07 "HgN/A
6:00 PM79 °FClear.12 mph65%30.07 "HgN/A
5:00 PM81 °FClear.14 mph62%30.04 "HgN/A
4:30 PM82 °FClear.16 mph51%30.04 "HgN/A
4:00 PM82 °FClear.16 mph58%30.04 "HgN/A
3:30 PM84 °FPassing clouds.16 mph51%30.04 "HgN/A
3:00 PM86 °FMostly cloudy.12 mph49%30.01 "HgN/A
Weather by CustomWeather, © 2016

See weather overviewHow to use our weather pages